Powrót do katalogu

STARLINK-3932

AktywnyŁącznośćVLEO
NORAD 52576·PAYLOAD·🇺🇸 United States

Wystrzelony May 13, 2022 z Vandenberg Space Force Base

Loading…

Następne Przeloty (najbliższe 24 godziny)

TLE

ŚwieżeSource: CelesTrak SupGP

Epoka: Sep 14, 2026, 21:49 UTC

1 52576C 22051AS  26257.90951389 -.00035758  00000+0 -10567-2 0  2578
2 52576  53.1586 343.5941 0001267  87.7012 104.7877 15.34401879    12

Śledź STARLINK-3932 w czasie rzeczywistym z AllMySat

Download on the App Store